KINEIS-2A

Last updated on Thu Oct 23 2025 00:02:50 GMT+0000 (Coordinated Universal Time)

1 62932U 25028E 25295.17127915 .00002289 00000+0 36978-3 0 9991 2 62932 98.0173 347.3478 0002644 171.3295 188.7959 14.72318448 37584
UTC large
Height (km)
Speed (km/s)
/
Latitude / Longitude
Inclination (degrees)
Orbital Period (minutes)
Azimuth
Elevation
Range (km)
Doppler Factor

Next 0 passes for location: London (51.5072 / 0.1276)

Sorry there are no passes over London.